Location: Praha
(50.0830°N, 14.4670°E)
Time: 13:04:12
(UTC+02:00)

ISS - Pass Details

Date: 24 September 2021
Orbit: 417 x 422 km, 51.6° (Epoch: 28 September)

Event Time Altitude Azimuth Distance (km) Brightness Sun altitude
Rises 19:22:49 0° 252° (WSW) 2,358 1.5 -5.2°
Reaches altitude 10° 19:24:55 10° 253° (WSW) 1,497 0.4 -5.5°
Maximum altitude 19:28:16 89° 171° (S) 424 -3.7 -6.1°
Drops below altitude 10° 19:31:39 10° 75° (ENE) 1,504 -1.5 -6.6°
Enters shadow 19:32:10 - 75° (ENE) 1,713 -1.2 -6.7°
